sat.trackr.live / text

‹ back to catalog

STARLINK-3151

NORAD 49408 · 2021-104A

PAYLOAD ACTIVE UNKNOWN

§ Identity

Operator
Country
US
Launch date
2021-11-13
Launch site
AFETR
Launch vehicle
Mass (kg)
RCS (m²)

Purposes: comms

External: N2YO · Heavens-Above · Gunter

§ Orbital elements

Epoch: 2026-06-23T21:19:59.989728Z

Period
87.69 min
Inclination
53.1974°
Eccentricity
0.0008665
Mean motion
16.42098427 rev/d
Perigee alt
154.6 km
Apogee alt
165.9 km
Semi-major
6,538.4 km
B*
3.9718e-4
RAAN
62.2522°
Arg perigee
259.8791°
Mean anomaly
100.1282°
Rev number
25,536

§ Raw data

STARLINK-31511 49408U 21104A   26174.88888877  .07631202  12382-4  39718-3 0  99972 49408  53.1974  62.2522 0008665 259.8791 100.1282 16.42098427255369

JSON: /api/v1/satellites/49408 · /tle

For live sub-satellite position, see the globe view (requires WebGL).

§ Visibility from observer

Set your observer location to see the next 7 days of passes ≥ 10°. The values pass through the URL so the page stays shareable.

No JS? Fill the form by hand. The geolocation button needs JavaScript.